MST,Max TemperatureF,Mean TemperatureF,Min TemperatureF,Max Dew PointF,MeanDew PointF,Min DewpointF,Max Humidity, Mean Humidity, Min Humidity, Max Sea Level PressureIn, Mean Sea Level PressureIn, Min Sea Level PressureIn, Max VisibilityMiles, Mean VisibilityMiles, Min VisibilityMiles, Max Wind SpeedMPH, Mean Wind SpeedMPH, Max Gust SpeedMPH,PrecipitationIn, CloudCover, Events, WindDirDegrees
2013-4-1,74,59,44,32,18,6,45,27,8,29.94,29.88,29.81,10,10,10,29,15,36,0.00,0,,206
2013-4-2,66,50,33,32,23,17,53,35,17,29.99,29.91,29.84,10,10,2,37,8,52,0.01,4,Rain,301
2013-4-3,71,53,34,32,23,12,75,44,13,30.11,30.06,29.98,10,10,10,17,6,24,0.00,0,,297
2013-4-4,77,54,31,19,16,13,49,29,8,30.19,30.05,29.93,10,10,10,18,6,22,0.00,0,,152
2013-4-5,78,64,49,25,21,17,29,20,11,29.93,29.85,29.77,10,10,10,31,15,41,0.00,0,,203
2013-4-6,79,62,45,27,24,20,37,24,11,29.93,29.83,29.74,10,10,10,24,10,29,0.00,0,,257
2013-4-7,79,62,44,27,24,15,45,28,10,29.86,29.76,29.65,10,10,10,28,10,35,0.00,0,,212
2013-4-8,69,54,39,39,30,21,79,49,18,29.63,29.44,29.26,10,7,2,51,21,66,0.17,6,Rain,205
2013-4-9,50,43,35,36,32,23,92,67,42,29.90,29.65,29.42,10,10,6,22,9,26,0.12,8,Rain,265
2013-4-10,56,46,35,30,20,7,70,42,14,30.07,29.99,29.89,10,10,10,25,11,39,0.00,3,,311
2013-4-11,70,50,29,31,26,21,78,48,17,30.01,29.89,29.80,10,10,10,22,7,26,0.00,2,,128
2013-4-12,72,52,32,31,24,13,82,47,11,29.87,29.82,29.76,10,10,10,18,5,28,0.00,0,,255
2013-4-13,78,58,37,28,22,17,59,35,11,29.90,29.73,29.60,10,10,10,31,13,39,0.00,0,,198
2013-4-14,76,65,53,26,22,14,32,22,11,29.76,29.58,29.52,10,10,10,39,22,48,0.00,0,,224
2013-4-15,75,62,48,29,25,19,39,26,12,29.60,29.56,29.52,10,10,10,36,17,46,0.00,0,,198
2013-4-16,72,59,46,30,24,14,46,29,11,29.65,29.53,29.46,10,9,3,53,34,68,0.00,0,,214
2013-4-17,51,41,31,24,17,8,49,35,21,30.11,29.86,29.68,10,10,8,30,12,39,0.01,4,,287
2013-4-18,56,39,22,17,5,-3,68,39,9,30.30,30.20,30.12,10,10,10,22,8,30,0.00,0,,301
2013-4-19,68,44,19,8,3,-1,43,25,7,30.33,30.16,29.96,10,10,10,13,4,16,0.00,0,,281
2013-4-20,75,54,32,12,8,-1,35,20,5,30.01,29.93,29.83,10,10,10,26,9,36,0.00,0,,293
2013-4-21,78,58,37,18,15,10,37,23,9,30.12,29.99,29.88,10,10,10,23,8,29,0.00,0,,236
2013-4-22,84,66,48,19,15,8,26,16,6,29.92,29.80,29.70,10,10,10,30,14,37,0.00,0,,223
2013-4-23,70,56,41,22,8,-9,30,18,5,29.98,29.86,29.67,10,10,10,29,13,36,0.00,0,,303
2013-4-24,76,52,28,20,8,-3,31,20,8,30.04,29.94,29.88,10,10,10,20,6,25,0.00,0,,207
2013-4-25,74,56,37,28,19,10,37,24,10,29.98,29.90,29.81,10,10,10,40,11,51,T,1,Rain,219
2013-4-26,79,59,38,28,21,12,54,31,8,30.24,30.10,29.95,10,10,10,20,8,27,0.00,0,,302
2013-4-27,,,,,,,,,,30.29,30.19,30.11,,,,75,59,,0.00,,,-1
2013-4-28,,,,,,,,,,30.16,30.07,29.96,,,,99,52,,0.00,,,-1
2013-4-29,89,76,64,16,15,13,15,9,6,30.01,29.89,29.65,10,10,10,16,28,31,0.00,0,,249
2013-4-30,87,71,55,17,13,9,20,13,6,29.72,29.66,29.62,10,10,10,37,16,47,0.00,0,,219